GW3504 Weather Reports


time (UTC)temp
C
wind
direction
speed
KPH
gust
KPH
rain 1hr
cm
rain 24hr
cm
rain mn
cm
humidity
%
barometer
mb
20260906183045 35 256 0.0 8.0 0.00 0.00 0.00 48 1015.1
20260906182525 35 151 1.6 9.7 0.00 0.00 0.00 49 1015.2
20260906182023 35 96 1.6 9.7 0.00 0.00 0.00 50 1015.3
20260906181543 35 92 3.2 11.3 0.00 0.00 0.00 50 1015.3
20260906181024 35 268 3.2 11.3 0.00 0.00 0.00 51 1015.4
20260906180620 35 148 1.6 8.0 0.00 0.00 0.00 52 1015.5
20260906180101 34 0 0.0 8.0 0.00 0.00 0.00 52 1015.6
20260906175525 34 0 1.6 9.7 0.00 0.00 0.00 52 1015.8
20260906175027 33 135 0.0 9.7 0.00 0.00 0.00 52 1015.9
20260906174549 33 117 3.2 9.7 0.00 0.00 0.00 54 1016.0
20260906174023 33 0 0.0 9.7 0.00 0.00 0.00 56 1016.0
20260906173526 33 151 3.2 9.7 0.00 0.00 0.00 54 1016.2
20260906173048 33 0 1.6 8.0 0.00 0.00 0.00 55 1016.2
20260906172525 33 121 0.0 8.0 0.00 0.00 0.00 55 1016.4
20260906172027 33 0 1.6 8.0 0.00 0.00 0.00 56 1016.4
20260906171547 33 0 1.6 9.7 0.00 0.00 0.00 57 1016.4
20260906171024 33 0 0.0 9.7 0.00 0.00 0.00 59 1016.5
20260906170526 33 128 1.6 6.4 0.00 0.00 0.00 57 1016.6
20260906170043 33 0 1.6 6.4 0.00 0.00 0.00 58 1016.5
20260906165525 32 98 1.6 9.7 0.00 0.00 0.00 58 1016.7
20260906165027 32 0 1.6 11.3 0.00 0.00 0.00 58 1016.6
20260906164555 32 62 3.2 11.3 0.00 0.00 0.00 59 1016.8
20260906164026 32 167 3.2 9.7 0.00 0.00 0.00 58 1016.8
20260906163525 32 99 1.6 9.7 0.00 0.00 0.00 58 1017.0
20260906163107 32 175 3.2 9.7 0.00 0.00 0.00 58 1017.0
20260906162524 32 118 3.2 11.3 0.00 0.00 0.00 59 1017.0
20260906162025 32 125 1.6 11.3 0.00 0.00 0.00 60 1017.0
20260906161546 32 176 1.6 11.3 0.00 0.00 0.00 60 1017.0
20260906161024 32 84 1.6 6.4 0.00 0.00 0.00 60 1017.0
20260906160525 32 126 0.0 9.7 0.00 0.00 0.00 60 1017.0
20260906160049 31 126 3.2 9.7 0.00 0.00 0.00 60 1016.9
20260906155525 31 154 3.2 8.0 0.00 0.00 0.00 59 1016.9
20260906155024 32 165 1.6 8.0 0.00 0.00 0.00 59 1016.8
20260906154545 32 169 3.2 11.3 0.00 0.00 0.00 58 1016.7
20260906154026 32 0 1.6 11.3 0.00 0.00 0.00 58 1016.6
20260906153525 31 0 0.0 6.4 0.00 0.00 0.00 60 1016.5
20260906153051 31 46 1.6 6.4 0.00 0.00 0.00 60 1016.5
20260906152526 31 72 0.0 9.7 0.00 0.00 0.00 60 1016.4
20260906152025 31 0 0.0 9.7 0.00 0.00 0.00 60 1016.3
20260906151543 31 0 1.6 9.7 0.00 0.00 0.00 61 1016.2
20260906151025 31 71 1.6 9.7 0.00 0.00 0.00 61 1016.2
20260906150525 30 59 0.0 9.7 0.00 0.00 0.00 62 1016.3
20260906150043 30 113 1.6 8.0 0.00 0.00 0.00 63 1016.3
20260906145525 30 185 3.2 8.0 0.00 0.00 0.00 63 1016.3
20260906145025 30 0 1.6 9.7 0.00 0.00 0.00 63 1016.3
20260906144548 30 68 1.6 9.7 0.00 0.00 0.00 63 1016.4
20260906144024 30 94 1.6 8.0 0.00 0.00 0.00 63 1016.4
20260906143525 30 0 1.6 6.4 0.00 0.00 0.00 64 1016.5
20260906143051 30 57 0.0 6.4 0.00 0.00 0.00 64 1016.5
20260906142523 30 100 0.0 6.4 0.00 0.00 0.00 63 1016.5
20260906142024 30 0 0.0 8.0 0.00 0.00 0.00 65 1016.5
20260906141542 29 155 1.6 8.0 0.00 0.00 0.00 65 1016.4
20260906141025 29 175 0.0 8.0 0.00 0.00 0.00 65 1016.4
20260906140524 28 0 1.6 6.4 0.00 0.00 0.00 67 1016.4
20260906140049 28 0 0.0 4.8 0.00 0.00 0.00 68 1016.4
20260906135523 28 0 0.0 4.8 0.00 0.00 0.00 68 1016.3
20260906135024 28 0 0.0 3.2 0.00 0.00 0.00 69 1016.3
20260906134547 28 0 0.0 3.2 0.00 0.00 0.00 70 1016.2
20260906134024 27 0 0.0 4.8 0.00 0.00 0.00 72 1016.2
20260906133524 27 0 1.6 8.0 0.00 0.00 0.00 72 1016.3
20260906133046 27 57 0.0 8.0 0.00 0.00 0.00 72 1016.1
20260906132524 27 64 1.6 6.4 0.00 0.00 0.00 72 1016.1
20260906132024 27 0 0.0 3.2 0.00 0.00 0.00 73 1016.0
20260906131601 27 0 0.0 3.2 0.00 0.00 0.00 74 1015.9
20260906131024 26 0 0.0 3.2 0.00 0.00 0.00 76 1015.8
20260906130526 26 0 0.0 0.0 0.00 0.00 0.00 78 1015.7
20260906130046 25 0 0.0 0.0 0.00 0.00 0.00 79 1015.6
20260906125524 25 0 0.0 0.0 0.00 0.00 0.00 80 1015.7
20260906125024 25 0 0.0 0.0 0.00 0.00 0.00 80 1015.5
20260906124550 25 0 0.0 0.0 0.00 0.00 0.00 81 1015.4
20260906124024 25 0 0.0 1.6 0.00 0.00 0.00 80 1015.5
20260906123522 25 0 0.0 1.6 0.00 0.00 0.00 80 1015.3
20260906123051 25 0 0.0 1.6 0.00 0.00 0.00 81 1015.4
20260906122523 25 0 0.0 0.0 0.00 0.00 0.00 81 1015.4
20260906122025 25 0 0.0 0.0 0.00 0.00 0.00 81 1015.4
20260906121549 25 0 0.0 0.0 0.00 0.00 0.00 80 1015.4
20260906121026 25 0 0.0 0.0 0.00 0.00 0.00 80 1015.3
20260906120526 25 0 0.0 0.0 0.00 0.00 0.00 80 1015.3
20260906120057 25 0 0.0 0.0 0.00 0.00 0.00 81 1015.2
20260906115523 25 0 0.0 0.0 0.00 0.00 0.00 80 1015.1
20260906115026 25 0 0.0 0.0 0.00 0.00 0.00 81 1015.2
20260906114546 25 0 0.0 0.0 0.00 0.00 0.00 81 1015.1
20260906114025 25 0 0.0 0.0 0.00 0.00 0.00 81 1015.0
20260906113525 24 0 0.0 0.0 0.00 0.00 0.00 81 1015.1
20260906113045 24 0 0.0 0.0 0.00 0.00 0.00 81 1015.1
20260906112524 24 0 0.0 0.0 0.00 0.00 0.00 81 1015.1
20260906112024 24 0 0.0 0.0 0.00 0.00 0.00 81 1015.0
20260906111545 24 0 0.0 0.0 0.00 0.00 0.00 81 1015.1
20260906111023 24 0 0.0 0.0 0.00 0.00 0.00 81 1015.0
20260906110523 25 0 0.0 0.0 0.00 0.00 0.00 81 1014.9
20260906110048 25 0 0.0 0.0 0.00 0.00 0.00 80 1015.0
20260906105526 25 0 0.0 0.0 0.00 0.00 0.00 80 1014.9
20260906105024 25 0 0.0 0.0 0.00 0.00 0.00 80 1015.0
20260906104548 25 0 0.0 0.0 0.00 0.00 0.00 79 1015.0
20260906104027 25 0 0.0 0.0 0.00 0.00 0.00 79 1015.0
20260906103527 25 0 0.0 0.0 0.00 0.00 0.00 78 1015.0
20260906103046 25 0 0.0 0.0 0.00 0.00 0.00 78 1015.0
20260906102524 25 0 0.0 0.0 0.00 0.00 0.00 77 1014.9
20260906102024 25 0 0.0 0.0 0.00 0.00 0.00 77 1014.9
20260906101545 25 0 0.0 0.0 0.00 0.00 0.00 76 1014.9
20260906101024 26 0 0.0 0.0 0.00 0.00 0.00 76 1014.7
20260906100527 26 0 0.0 0.0 0.00 0.00 0.00 75 1014.8
20260906100050 26 0 0.0 0.0 0.00 0.00 0.00 74 1014.7
20260906095524 26 0 0.0 0.0 0.00 0.00 0.00 74 1014.7
20260906095023 26 0 0.0 0.0 0.00 0.00 0.00 73 1014.8
20260906094548 26 0 0.0 0.0 0.00 0.00 0.00 73 1014.7
20260906094025 26 0 0.0 0.0 0.00 0.00 0.00 73 1014.7
20260906093524 26 0 0.0 0.0 0.00 0.00 0.00 73 1014.7
20260906093053 26 0 0.0 0.0 0.00 0.00 0.00 73 1014.7
20260906092526 26 0 0.0 0.0 0.00 0.00 0.00 73 1014.5
20260906092024 26 0 0.0 0.0 0.00 0.00 0.00 73 1014.5
20260906091549 26 0 0.0 0.0 0.00 0.00 0.00 72 1014.5
20260906091027 26 0 0.0 0.0 0.00 0.00 0.00 72 1014.4
20260906090527 26 0 0.0 0.0 0.00 0.00 0.00 72 1014.5
20260906090048 26 0 0.0 0.0 0.00 0.00 0.00 72 1014.5
20260906085525 26 0 0.0 0.0 0.00 0.00 0.00 71 1014.4
20260906085025 26 0 0.0 0.0 0.00 0.00 0.00 72 1014.3
20260906084552 26 0 0.0 0.0 0.00 0.00 0.00 72 1014.3
20260906084026 26 0 0.0 0.0 0.00 0.00 0.00 72 1014.3
20260906083524 26 0 0.0 0.0 0.00 0.00 0.00 72 1014.3
20260906083042 26 0 0.0 0.0 0.00 0.00 0.00 72 1014.2
20260906082523 26 0 0.0 0.0 0.00 0.00 0.00 71 1014.3
20260906082023 26 0 0.0 0.0 0.00 0.00 0.00 72 1014.2
20260906081548 26 0 0.0 0.0 0.00 0.00 0.00 72 1014.2
20260906081025 26 0 0.0 0.0 0.00 0.00 0.00 72 1014.3
20260906080524 27 0 0.0 0.0 0.00 0.00 0.00 71 1014.2
20260906080054 27 0 0.0 0.0 0.00 0.00 0.00 71 1014.2
20260906075525 27 0 0.0 0.0 0.00 0.00 0.00 71 1014.2
20260906075026 27 0 0.0 0.0 0.00 0.00 0.00 70 1014.2
20260906074548 27 0 0.0 0.0 0.00 0.00 0.00 70 1014.3
20260906074024 27 0 0.0 0.0 0.00 0.00 0.00 70 1014.3
20260906073520 27 0 0.0 0.0 0.00 0.00 0.00 69 1014.2
20260906073040 27 0 0.0 0.0 0.00 0.00 0.00 69 1014.2
20260906072523 27 0 0.0 0.0 0.00 0.00 0.00 69 1014.2
20260906072026 27 0 0.0 0.0 0.00 0.00 0.00 69 1014.3
20260906071546 27 0 0.0 0.0 0.00 0.00 0.00 69 1014.2
20260906071025 27 0 0.0 0.0 0.00 0.00 0.00 69 1014.3
20260906070522 27 0 0.0 1.6 0.00 0.00 0.00 69 1014.3
20260906070042 27 0 0.0 1.6 0.00 0.00 0.00 69 1014.4
20260906065524 27 0 0.0 1.6 0.00 0.00 0.00 69 1014.4
20260906065024 27 0 0.0 0.0 0.00 0.00 0.00 69 1014.5
20260906064539 28 0 0.0 0.0 0.00 0.00 0.00 68 1014.5
20260906064023 28 0 0.0 0.0 0.00 0.00 0.00 68 1014.5
20260906063522 28 0 0.0 0.0 0.00 0.00 0.00 68 1014.5
20260906063049 28 0 0.0 1.6 0.00 0.00 0.00 68 1014.5
20260906062525 28 0 0.0 1.6 0.00 0.00 0.00 67 1014.6
20260906062024 28 0 0.0 0.0 0.00 0.00 0.00 67 1014.6
20260906061547 28 0 0.0 0.0 0.00 0.00 0.00 67 1014.7
20260906061025 28 0 0.0 1.6 0.00 0.00 0.00 66 1014.6
20260906060524 28 0 0.0 3.2 0.00 0.00 0.00 66 1014.6
20260906060054 28 0 0.0 3.2 0.00 0.00 0.00 66 1014.7
20260906055524 28 101 0.0 1.6 0.00 0.00 0.00 66 1014.7
20260906055023 28 0 0.0 1.6 0.00 0.00 0.00 65 1014.8
20260906054549 29 0 0.0 1.6 0.00 0.00 0.00 65 1014.8
20260906054024 29 0 0.0 1.6 0.00 0.00 0.00 65 1014.8
20260906053522 29 0 0.0 0.0 0.00 0.00 0.00 65 1014.9
20260906053045 29 0 0.0 1.6 0.00 0.00 0.00 65 1014.8
20260906052524 29 0 0.0 1.6 0.00 0.00 0.00 65 1014.9
20260906052022 29 0 0.0 3.2 0.00 0.00 0.00 65 1014.8
20260906051545 29 0 0.0 3.2 0.00 0.00 0.00 65 1014.9
20260906051025 29 0 0.0 3.2 0.00 0.00 0.00 65 1014.8
20260906050524 29 0 0.0 3.2 0.00 0.00 0.00 65 1014.8
20260906050046 29 0 0.0 1.6 0.00 0.00 0.00 66 1014.8
20260906045523 29 0 0.0 0.0 0.00 0.00 0.00 65 1014.7
20260906045023 29 0 0.0 0.0 0.00 0.00 0.00 65 1014.7
20260906044549 29 0 0.0 0.0 0.00 0.00 0.00 65 1014.7
20260906044027 29 0 0.0 0.0 0.00 0.00 0.00 64 1014.8
20260906043523 30 0 0.0 0.0 0.00 0.00 0.00 64 1014.7
20260906043043 30 0 0.0 1.6 0.00 0.00 0.00 64 1014.7
20260906042523 30 0 0.0 1.6 0.00 0.00 0.00 64 1014.7
20260906042025 30 0 0.0 3.2 0.00 0.00 0.00 64 1014.8
20260906041547 30 0 0.0 3.2 0.00 0.00 0.00 63 1014.6
20260906041025 30 148 0.0 3.2 0.00 0.00 0.00 63 1014.6
20260906040523 30 0 0.0 3.2 0.00 0.00 0.00 63 1014.4
20260906040051 30 0 0.0 3.2 0.00 0.00 0.00 63 1014.4
20260906035524 30 0 0.0 3.2 0.00 0.00 0.00 63 1014.4
20260906035025 30 122 0.0 4.8 0.00 0.00 0.00 62 1014.4
20260906034546 30 0 0.0 4.8 0.00 0.00 0.00 62 1014.3
20260906034024 30 0 0.0 3.2 0.00 0.00 0.00 62 1014.3
20260906033524 31 0 0.0 3.2 0.00 0.00 0.00 61 1014.2
20260906033041 31 86 0.0 4.8 0.00 0.00 0.00 60 1014.1
20260906032524 31 0 0.0 4.8 0.00 0.00 0.00 60 1014.1
20260906032024 31 0 0.0 4.8 0.00 0.00 0.00 60 1014.2
20260906031541 31 80 0.0 4.8 0.00 0.00 0.00 59 1014.1
20260906031023 31 0 0.0 6.4 0.00 0.00 0.00 59 1014.0
20260906030523 31 0 0.0 6.4 0.00 0.00 0.00 59 1014.0
20260906030052 31 0 0.0 6.4 0.00 0.00 0.00 59 1014.0
20260906025523 31 0 0.0 6.4 0.00 0.00 0.00 59 1014.0
20260906025025 31 0 0.0 6.4 0.00 0.00 0.00 58 1013.9
20260906024544 31 90 0.0 4.8 0.00 0.00 0.00 58 1013.8
20260906024025 31 0 0.0 4.8 0.00 0.00 0.00 58 1013.7
20260906023525 31 0 0.0 9.7 0.00 0.00 0.00 58 1013.6
20260906023048 31 0 0.0 9.7 0.00 0.00 0.00 57 1013.6
20260906022525 31 0 0.0 6.4 0.00 0.00 0.00 58 1013.5
20260906022028 31 0 0.0 6.4 0.00 0.00 0.00 57 1013.4
20260906021545 32 0 0.0 4.8 0.00 0.00 0.00 57 1013.2
20260906021023 32 0 0.0 6.4 0.00 0.00 0.00 57 1013.1
20260906020525 32 67 0.0 6.4 0.00 0.00 0.00 56 1013.2
20260906020053 32 0 0.0 1.6 0.00 0.00 0.00 56 1013.1
20260906015524 32 0 0.0 8.0 0.00 0.00 0.00 56 1013.0
20260906015024 32 0 0.0 8.0 0.00 0.00 0.00 56 1013.0
20260906014546 32 0 1.6 8.0 0.00 0.00 0.00 55 1012.9
20260906014027 32 51 0.0 4.8 0.00 0.00 0.00 55 1012.9
20260906013524 32 28 0.0 3.2 0.00 0.00 0.00 54 1012.9
20260906013047 32 0 0.0 0.0 0.00 0.00 0.00 54 1012.8
20260906012527 32 0 0.0 0.0 0.00 0.00 0.00 53 1012.7
20260906012029 32 0 0.0 0.0 0.00 0.00 0.00 53 1012.7
20260906011555 32 0 0.0 0.0 0.00 0.00 0.00 54 1012.6
20260906011023 32 0 0.0 0.0 0.00 0.00 0.00 52 1012.6
20260906010525 32 0 0.0 0.0 0.00 0.00 0.00 52 1012.5
20260906010043 33 0 0.0 0.0 0.00 0.00 0.00 51 1012.4
20260906005525 33 0 0.0 0.0 0.00 0.00 0.00 51 1012.4
20260906005027 33 0 0.0 0.0 0.00 0.00 0.00 50 1012.5
20260906004552 33 0 0.0 0.0 0.00 0.00 0.00 50 1012.5
20260906004027 33 0 0.0 0.0 0.00 0.00 0.00 49 1012.5
20260906003525 34 0 0.0 0.0 0.00 0.00 0.00 48 1012.5
20260906003049 34 0 0.0 0.0 0.00 0.00 0.00 47 1012.5
20260906002524 35 0 0.0 0.0 0.00 0.00 0.00 47 1012.5
20260906002025 35 0 0.0 0.0 0.00 0.00 0.00 46 1012.5
20260906001543 35 0 0.0 0.0 0.00 0.00 0.00 46 1012.4
20260906001027 35 0 0.0 0.0 0.00 0.00 0.00 45 1012.3
20260906000530 35 0 0.0 0.0 0.00 0.00 0.00 44 1012.5
20260906000042 35 0 0.0 0.0 0.00 0.00 0.00 44 1012.4
20260905235524 35 0 0.0 1.6 0.00 0.00 0.00 43 1012.4
20260905235026 35 0 0.0 1.6 0.00 0.00 0.00 42 1012.4
20260905234541 36 0 0.0 0.0 0.00 0.00 0.00 42 1012.4
20260905234028 36 0 0.0 0.0 0.00 0.00 0.00 42 1012.4
20260905233524 36 0 0.0 1.6 0.00 0.00 0.00 41 1012.5
20260905233103 36 0 0.0 4.8 0.00 0.00 0.00 41 1012.5
20260905232526 36 0 0.0 11.3 0.00 0.00 0.00 40 1012.6
20260905232025 36 133 1.6 12.9 0.00 0.00 0.00 40 1012.5
20260905231553 36 163 1.6 12.9 0.00 0.00 0.00 40 1012.4
20260905231025 36 96 3.2 9.7 0.00 0.00 0.00 39 1012.4
20260905230531 36 110 0.0 9.7 0.00 0.00 0.00 39 1012.3
20260905230051 37 141 3.2 9.7 0.00 0.00 0.00 38 1012.3
20260905225522 37 0 1.6 9.7 0.00 0.00 0.00 38 1012.2
20260905225023 37 0 3.2 12.9 0.00 0.00 0.00 38 1012.2
20260905224605 37 175 4.8 12.9 0.00 0.00 0.00 37 1012.2
20260905224025 37 155 4.8 14.5 0.00 0.00 0.00 38 1012.3
20260905223525 37 162 4.8 14.5 0.00 0.00 0.00 38 1012.3
20260905223041 37 109 4.8 12.9 0.00 0.00 0.00 38 1012.4
20260905222529 37 0 3.2 9.7 0.00 0.00 0.00 38 1012.5
20260905222026 37 175 0.0 11.3 0.00 0.00 0.00 38 1012.5
20260905221546 37 120 3.2 11.3 0.00 0.00 0.00 37 1012.5
20260905221028 37 166 1.6 9.7 0.00 0.00 0.00 36 1012.7
20260905220525 37 89 1.6 12.9 0.00 0.00 0.00 37 1012.7
20260905220048 37 172 3.2 12.9 0.00 0.00 0.00 36 1012.7
20260905215523 37 96 1.6 14.5 0.00 0.00 0.00 36 1012.7
20260905215024 37 108 1.6 14.5 0.00 0.00 0.00 37 1012.8
20260905214549 37 85 4.8 14.5 0.00 0.00 0.00 36 1012.8
20260905214023 37 139 3.2 11.3 0.00 0.00 0.00 37 1012.8
20260905213526 37 163 4.8 11.3 0.00 0.00 0.00 35 1012.9
20260905213048 37 155 1.6 9.7 0.00 0.00 0.00 36 1012.9
20260905212525 37 0 0.0 9.7 0.00 0.00 0.00 36 1012.9
20260905212029 37 0 3.2 9.7 0.00 0.00 0.00 37 1013.0
20260905211543 38 157 1.6 11.3 0.00 0.00 0.00 35 1013.0
20260905211025 37 0 3.2 11.3 0.00 0.00 0.00 37 1013.1
20260905210529 37 0 1.6 9.7 0.00 0.00 0.00 36 1013.1
20260905210042 38 175 3.2 11.3 0.00 0.00 0.00 36 1013.1
20260905205524 37 50 0.0 11.3 0.00 0.00 0.00 38 1013.3
20260905205023 37 107 3.2 11.3 0.00 0.00 0.00 38 1013.3
20260905204547 37 111 0.0 11.3 0.00 0.00 0.00 38 1013.3
20260905204025 37 163 4.8 14.5 0.00 0.00 0.00 38 1013.5
20260905203524 37 174 3.2 14.5 0.00 0.00 0.00 37 1013.6
20260905203043 38 177 3.2 14.5 0.00 0.00 0.00 37 1013.6
20260905202524 37 0 4.8 11.3 0.00 0.00 0.00 37 1013.7
20260905202024 37 180 0.0 4.8 0.00 0.00 0.00 38 1013.8
20260905201542 37 0 0.0 11.3 0.00 0.00 0.00 39 1013.9
20260905201024 37 311 1.6 11.3 0.00 0.00 0.00 37 1014.0
20260905200524 37 167 3.2 8.0 0.00 0.00 0.00 39 1014.1
20260905200049 37 0 1.6 12.9 0.00 0.00 0.00 39 1014.1
20260905195524 37 210 1.6 12.9 0.00 0.00 0.00 40 1014.1
20260905195028 36 103 3.2 12.9 0.00 0.00 0.00 40 1014.3
20260905194550 37 84 0.0 12.9 0.00 0.00 0.00 40 1014.3
20260905194025 37 92 3.2 14.5 0.00 0.00 0.00 39 1014.5
20260905193526 37 0 4.8 16.1 0.00 0.00 0.00 40 1014.5
20260905193046 36 155 8.0 16.1 0.00 0.00 0.00 39 1014.5
20260905192527 37 169 6.4 16.1 0.00 0.00 0.00 39 1014.5
20260905192026 37 13 1.6 9.7 0.00 0.00 0.00 40 1014.5
20260905191548 37 0 1.6 9.7 0.00 0.00 0.00 39 1014.5
20260905191023 37 139 3.2 11.3 0.00 0.00 0.00 39 1014.5
20260905190529 37 153 1.6 11.3 0.00 0.00 0.00 39 1014.6
20260905190100 37 260 1.6 14.5 0.00 0.00 0.00 38 1014.6
20260905185524 37 165 1.6 14.5 0.00 0.00 0.00 39 1014.6
20260905185024 37 0 3.2 12.9 0.00 0.00 0.00 41 1014.6
20260905184609 36 0 1.6 8.0 0.00 0.00 0.00 43 1014.6
20260905184024 35 149 1.6 12.9 0.00 0.00 0.00 43 1014.8
20260905183528 36 271 3.2 17.7 0.00 0.00 0.00 43 1015.0